星链-2003 (STARLINK-2003 )

导读 | 豆包AI

STARLINK-2003是美国SpaceX公司星链(Starlink)星座项目中的卫星,于2021年2月4日发射升空,属于星链一代组网卫星,运行于近地轨道。 它是星链全球低延迟宽带互联网覆盖计划的组成部分,依靠星载相控阵天线和太阳能电池阵,为全球偏远地区提供高速互联网接入,星链卫星退役后可快速离轨再入大气层减少太空垃圾。

基本信息
目录编号:
47598
目录名称:
STARLINK-2003
国际标识:
2021-009BC
轨道中心:
EARTH
卫星名称:
星链-2003
卫星全名:
星链-2003 (STARLINK-2003 )
卫星状态:
已陨落 最后检测时间 2025-03-22
发射日期:
2021-02-04 UTC
国别 :
美国 (US)
星等 :
--
轨道信息
数据来源 国际轨道数据
星历时间: 2025-03-22T11:35:02+0800
轨道信息已过期404天
半长轴: 6527.94km
偏心率: 0.0004366
轨道倾角: 53.021°
近地点辐角 238.113°
升交点赤经 104.071°
平近点角 241.487°
近地点: 146.954km
远地点: 152.656km
周期: 87.483分钟
每日圈数: 16.46033
详细信息
固有亮度:
5
最大亮度:
2.5
卫星平台:
Starlink V1.0
覆盖范围:
全球
运营商:
太空探索技术公司
运营商所在国:
美国
制造商(研发单位):
太空探索技术公司
制造商所在国:
美国
使用方式:
暂无
卫星简介
星链(Starlink)计划是由太空探索技术公司(SpaceX)提出的一个巨型低轨卫星互联网星座项目,计划在2019年至2024年间在太空搭建由约1.2万颗卫星组成的“星链”网络,其中1584颗将部署在地球上空550千米处的近地轨道,并从2020年开始工作。该卫星仍在工作。